User: anonymous   Login
Location: Unspecified
(0.0000°N, 0.0000°E)
Time: 22:32:12
(UTC+00:00)
Language:

AO-73 - Orbit

View from above orbital plane
View from above orbital plane
View from above satellite
View from above satellite

Ground track
Ground track

The orbit data is extracted from the following two-line orbital elements,

1 39444U 13066AE  18174.65848188 +.00000296 +00000-0 +42793-4 0  9995
2 39444 097.5872 204.4857 0059543 128.4171 232.2410 14.81725833246619
Epoch (UTC): 23 June 2018 15:48:12
Eccentricity: 0.0059543
inclination: 97.5872°
perigee height: 582 km
apogee height: 665 km
right ascension of ascending node: 204.4857°
argument of perigee: 128.4171°
revolutions per day: 14.81725833
mean anomaly at epoch: 232.2410°
orbit number at epoch: 24661

The dashed part of the orbit path shows where the satellite is in the earth's shadow,  

DLR